FW4803 Weather Reports


time (UTC)temp
F
wind
direction
speed
knots
gust
knots
rain 1hr
in
rain 24hr
in
rain mn
in
humidity
%
barometer
mb
20260504110507 63 287 7.0 9.6 0.00 0.00 0.00 30 1018.8
20260504100507 62 350 13.0 18.2 0.00 0.00 0.00 32 1019.0
20260504081506 60 22 9.6 13.0 0.00 0.00 0.00 38 1019.1
20260504050009 51 245 1.7 2.6 0.00 0.04 0.00 66 1018.3
20260504045506 51 254 0.9 2.6 0.00 0.04 0.00 66 1018.3
20260504044007 50 0 0.0 0.0 0.00 0.06 0.00 68 1018.0
20260504043506 50 0 0.0 0.0 0.00 0.07 0.00 69 1018.1
20260504042507 50 245 0.0 1.7 0.00 0.11 0.00 69 1018.0
20260504042007 49 265 0.9 1.7 0.00 0.12 0.00 69 1018.1
20260504041506 49 255 1.7 1.7 0.00 0.13 0.00 69 1018.0
20260504041006 49 32 1.7 3.5 0.00 0.13 0.00 69 1017.9
20260504040506 49 3 2.6 3.5 0.00 0.13 0.00 69 1017.9
20260504040007 49 17 2.6 3.5 0.00 0.15 0.00 69 1017.7
20260504035506 48 63 1.7 2.6 0.00 0.15 0.00 69 1017.8
20260504034507 48 67 0.9 2.6 0.00 0.17 0.00 68 1017.8
20260504034006 48 17 0.9 1.7 0.00 0.17 0.00 68 1017.6
20260504033506 49 16 1.7 2.6 0.00 0.17 0.00 68 1017.8
20260504033006 49 19 2.6 3.5 0.00 0.17 0.00 67 1017.8
20260504032506 49 25 2.6 3.5 0.00 0.17 0.00 67 1017.6
20260504032009 49 20 2.6 3.5 0.00 0.17 0.00 67 1017.7
20260504031506 48 16 2.6 3.5 0.00 0.17 0.00 68 1017.7
20260504030507 48 44 2.6 3.5 0.00 0.17 0.00 68 1017.7
20260504030009 48 44 1.7 3.5 0.00 0.17 0.00 68 1017.6
20260504025009 48 32 2.6 3.5 0.00 0.17 0.00 68 1017.5
20260504024507 48 25 2.6 3.5 0.00 0.17 0.00 68 1017.7
20260504023007 48 301 0.9 1.7 0.00 0.17 0.00 68 1017.7
20260504022506 48 286 1.7 2.6 0.00 0.17 0.00 68 1017.9
20260504022006 48 289 1.7 2.6 0.00 0.18 0.00 67 1017.8
20260504021506 48 275 0.9 1.7 0.00 0.18 0.00 67 1017.9
20260504021006 48 284 0.9 1.7 0.00 0.18 0.00 67 1017.8
20260504020006 48 295 1.7 3.5 0.00 0.18 0.00 66 1017.9
20260504015506 48 300 1.7 3.5 0.00 0.18 0.00 67 1017.8
20260504015007 48 334 1.7 2.6 0.00 0.18 0.00 66 1017.9
20260504014515 48 343 1.7 3.5 0.00 0.18 0.00 66 1017.9
20260504014006 48 349 1.7 3.5 0.00 0.18 0.00 66 1017.9
20260504013506 48 357 1.7 3.5 0.00 0.18 0.00 66 1017.8
20260504013006 48 359 1.7 3.5 0.00 0.18 0.00 65 1017.7
20260504012506 49 15 0.9 3.5 0.00 0.18 0.00 65 1017.7
20260504012006 49 52 0.9 2.6 0.00 0.18 0.00 64 1017.7
20260504011506 49 85 1.7 3.5 0.00 0.18 0.00 63 1017.9
20260504011006 49 117 2.6 3.5 0.00 0.18 0.00 63 1017.8
20260504010507 49 47 2.6 3.5 0.00 0.18 0.00 63 1018.0
20260504010006 49 3 1.7 3.5 0.00 0.18 0.00 63 1017.8
20260504005506 49 3 0.9 3.5 0.00 0.18 0.00 62 1017.7
20260504005007 49 153 0.9 1.7 0.00 0.18 0.00 62 1017.8
20260504003506 49 236 3.5 5.2 0.00 0.18 0.00 62 1017.8
20260504003006 49 196 2.6 5.2 0.00 0.18 0.00 63 1017.8
20260504002007 49 7 2.6 5.2 0.00 0.18 0.00 62 1017.8
20260504001006 49 330 1.7 1.7 0.00 0.18 0.00 62 1017.7
20260504000508 49 307 2.6 5.2 0.00 0.18 0.00 62 1017.7
20260504000007 49 283 3.5 5.2 0.00 0.18 0.00 62 1017.7
20260503235506 49 259 2.6 3.5 0.00 0.18 0.00 62 1017.8
20260503235006 49 238 1.7 2.6 0.00 0.18 0.00 63 1017.8
20260503234506 49 196 1.7 2.6 0.00 0.18 0.00 63 1017.9
20260503234006 49 196 0.9 2.6 0.00 0.18 0.00 63 1017.9
20260503233506 49 237 0.9 1.7 0.00 0.18 0.00 63 1017.7
20260503233006 49 316 0.9 3.5 0.00 0.18 0.00 62 1017.8
20260503232506 49 349 2.6 4.3 0.00 0.18 0.00 62 1017.8
20260503232006 49 342 2.6 4.3 0.00 0.18 0.00 62 1017.8
20260503231506 50 346 3.5 7.0 0.00 0.18 0.00 62 1017.7
20260503231006 50 352 5.2 7.0 0.00 0.18 0.00 62 1017.7
20260503230506 50 344 4.3 7.0 0.00 0.18 0.00 62 1017.8
20260503230007 49 355 3.5 5.2 0.00 0.18 0.00 62 1017.6
20260503225506 49 358 3.5 5.2 0.00 0.18 0.00 63 1017.7
20260503225006 49 333 1.7 5.2 0.00 0.18 0.00 63 1017.9
20260503224506 49 42 0.9 1.7 0.00 0.18 0.00 64 1017.8
20260503224006 49 1 0.0 0.9 0.00 0.18 0.00 63 1017.8
20260503223506 49 318 0.9 1.7 0.00 0.19 0.00 63 1017.7
20260503222506 49 318 1.7 3.5 0.00 0.20 0.00 63 1017.8
20260503221006 49 279 2.6 3.5 0.00 0.20 0.00 62 1018.1
20260503220506 49 286 2.6 3.5 0.00 0.21 0.00 62 1018.0
20260503220031 49 286 2.6 3.5 0.00 0.21 0.00 63 1018.0
20260503215530 49 265 1.7 2.6 0.00 0.21 0.00 63 1018.1
20260503214530 49 284 1.7 3.5 0.00 0.21 0.00 63 1018.1
20260503213030 49 276 1.7 3.5 0.00 0.21 0.00 63 1018.0
20260503212531 49 299 1.7 2.6 0.00 0.21 0.00 63 1018.0
20260503211531 49 63 0.9 1.7 0.00 0.21 0.00 63 1018.0
20260503211034 49 68 0.9 1.7 0.00 0.21 0.00 62 1018.0
20260503210036 50 156 0.0 0.9 0.00 0.21 0.00 61 1018.1
20260503205031 50 204 0.9 1.7 0.00 0.21 0.21 62 1018.0
20260503204531 50 226 0.9 1.7 0.00 0.21 0.21 60 1018.1
20260503203530 50 263 1.7 2.6 0.00 0.21 0.21 60 1018.1
20260503203031 50 267 0.9 2.6 0.00 0.21 0.21 59 1018.1
20260503202531 50 239 0.9 1.7 0.00 0.21 0.21 59 1018.1
20260503202031 50 242 1.7 3.5 0.00 0.21 0.21 58 1018.0
20260503201530 51 246 1.7 3.5 0.00 0.21 0.21 58 1018.0
20260503201031 51 252 2.6 3.5 0.00 0.21 0.21 58 1018.2
20260503200031 51 268 1.7 4.3 0.00 0.21 0.21 58 1018.1
20260503195531 51 293 2.6 6.1 0.00 0.21 0.21 58 1018.1
20260503194532 51 278 3.5 10.4 0.00 0.21 0.21 58 1018.0
20260503193031 51 305 5.2 7.0 0.00 0.21 0.21 57 1017.9
20260503192530 51 325 3.5 7.0 0.00 0.21 0.21 57 1017.9
20260503192030 51 317 4.3 8.7 0.00 0.21 0.21 57 1017.9
20260503191031 51 325 3.5 7.0 0.00 0.21 0.21 56 1018.0
20260503190531 51 318 3.5 7.0 0.00 0.21 0.21 56 1017.9
20260503190031 51 327 3.5 6.1 0.00 0.21 0.21 56 1018.0
20260503185532 51 323 5.2 8.7 0.00 0.21 0.21 56 1017.9
20260503185034 51 330 7.0 8.7 0.00 0.21 0.21 56 1017.7
20260503184530 51 343 7.0 8.7 0.00 0.21 0.21 56 1017.7
20260503182531 51 329 5.2 9.6 0.00 0.21 0.21 58 1017.5
20260503182031 51 324 6.1 9.6 0.00 0.21 0.21 58 1017.2
20260503181531 51 320 6.1 8.7 0.00 0.21 0.21 60 1017.2
20260503181031 51 348 6.1 8.7 0.00 0.21 0.21 59 1017.1
20260503180031 51 350 7.8 11.3 0.00 0.21 0.21 59 1017.0
20260503175530 51 347 8.7 11.3 0.00 0.21 0.21 60 1017.0
20260503175030 51 347 8.7 9.6 0.00 0.21 0.21 60 1017.0
20260503174530 51 333 7.8 9.6 0.00 0.21 0.21 60 1017.1
20260503173030 51 346 9.6 14.8 0.00 0.21 0.21 60 1016.7
20260503172530 51 345 7.8 11.3 0.00 0.21 0.21 60 1016.7
20260503172031 51 343 7.8 11.3 0.00 0.21 0.21 59 1016.7
20260503171531 52 346 8.7 11.3 0.00 0.21 0.21 58 1016.6
20260503171040 52 347 8.7 13.0 0.00 0.21 0.21 58 1016.6
20260503170531 52 341 9.6 14.8 0.00 0.21 0.21 58 1016.6
20260503150530 54 323 14.8 23.5 0.00 0.21 0.21 46 1015.8
20260503131030 55 355 13.9 18.2 0.00 0.21 0.21 52 1015.8
20260503130530 55 336 15.6 23.5 0.00 0.21 0.21 51 1015.7